Change the Weather History Date:

Sunday, November 4, 2012

  Actual Average Record
Temperature  
Mean Temperature 38 °F -  
Max Temperature 39 °F 56 °F 78 °F (2003)
Min Temperature 37 °F 35 °F 22 °F (1991)
Degree Days  
Heating Degree Days 27    
Moisture  
Dew Point 27 °F    
Average Humidity 64    
Maximum Humidity 79    
Minimum Humidity 51    
Precipitation  
Precipitation 0.00 in - - ()
Sea Level Pressure  
Sea Level Pressure 30.12 in    
Wind  
Wind Speed 6 mph (NNW)    
Max Wind Speed 9 mph    
Max Gust Speed -    
Visibility 10 miles    
Events      
Averages and records for this station are not official NWS values.
T = Trace of Precipitation, MM = Missing Value Source: NWS Daily Summary

Daily Weather History Graph

Daily Weather History Graph

Search for Another Location

Airport or City:

Trip Planner

Search our weather history database for the weather conditions in past years. The results will help you decide how hot, cold, wet, or windy it might be!

Date:

Astronomy

Nov. 04, 2012 Rise Set
Actual Time 6:53 AM EST 5:12 PM EST
Civil Twilight 6:24 AM EST 5:41 PM EST
Nautical Twilight 5:52 AM EST 6:13 PM EST
Astronomical Twilight 5:20 AM EST 6:45 PM EST
Moon 9:49 PM EST (11/4) 11:36 AM EST (11/4)
Length of Visible Light 11h 16m
Length of Day
10h 19m
Waning Gibbous, 72% of the Moon is Illuminated
Nov 4
Waning Gibbous
Nov 6
Last Quarter
Nov 13
New
Nov 20
First Quarter
Nov 28
Full

Hourly Weather History & Observations

Time (EST) Temp. Windchill Dew Point Humidity Pressure Visibility Wind Dir Wind Speed Gust Speed Precip Events Conditions
12:32 AM 39.2 °F 37.0 °F 28.4 °F 65% 30.08 in 10.0 mi NW 3.5 mph - N/A   Overcast
12:53 AM 39.0 °F 34.0 °F 30.9 °F 73% 30.12 in 10.0 mi NNW 6.9 mph - N/A   Overcast
1:53 AM 37.9 °F 34.4 °F 30.9 °F 76% 30.12 in 10.0 mi NNW 4.6 mph - 0.00 in   Overcast
1:03 AM 37.4 °F 34.9 °F 30.2 °F 75% 30.08 in 10.0 mi NW 3.5 mph - N/A   Overcast
1:53 AM 37.9 °F 35.5 °F 30.9 °F 76% 30.11 in 10.0 mi NW 3.5 mph - N/A   Overcast
2:53 AM 37.9 °F 33.5 °F 32.0 °F 79% 30.12 in 10.0 mi NW 5.8 mph - N/A   Overcast
3:53 AM 37.9 °F 32.7 °F 30.9 °F 76% 30.11 in 10.0 mi NNW 6.9 mph - N/A   Overcast
4:53 AM 37.9 °F 33.5 °F 30.9 °F 76% 30.12 in 10.0 mi NNW 5.8 mph - N/A   Overcast
5:01 AM 37.4 °F 31.4 °F 30.2 °F 75% 30.08 in 10.0 mi NNW 8.1 mph - N/A   Overcast
5:29 AM 37.4 °F 32.1 °F 30.2 °F 75% 30.09 in 10.0 mi NNW 6.9 mph - N/A   Overcast
5:53 AM 37.0 °F 32.4 °F 28.0 °F 70% 30.12 in 10.0 mi NNW 5.8 mph - N/A   Overcast
6:53 AM 37.0 °F 32.4 °F 25.0 °F 62% 30.13 in 10.0 mi NNW 5.8 mph - N/A   Overcast
7:53 AM 37.0 °F 32.4 °F 26.1 °F 65% 30.13 in 10.0 mi NNW 5.8 mph - N/A   Overcast
8:53 AM 37.9 °F 33.5 °F 24.1 °F 57% 30.14 in 10.0 mi NNW 5.8 mph - N/A   Overcast
9:53 AM 39.0 °F 34.0 °F 25.0 °F 57% 30.14 in 10.0 mi NNW 6.9 mph - N/A   Overcast
10:53 AM 39.9 °F 35.1 °F 25.0 °F 55% 30.14 in 10.0 mi North 6.9 mph - N/A   Overcast
11:53 AM 39.0 °F 34.8 °F 24.1 °F 55% 30.13 in 10.0 mi NNW 5.8 mph - N/A   Overcast
12:09 PM 39.2 °F 34.2 °F 24.8 °F 56% 30.09 in 10.0 mi West 6.9 mph - N/A   Overcast
12:53 PM 39.9 °F 35.8 °F 25.0 °F 55% 30.12 in 10.0 mi NNW 5.8 mph - N/A   Overcast
1:53 PM 39.0 °F 34.0 °F 23.0 °F 53% 30.12 in 10.0 mi NNW 6.9 mph - N/A   Overcast
2:53 PM 39.9 °F 33.9 °F 23.0 °F 51% 30.12 in 10.0 mi North 9.2 mph - N/A   Overcast
3:53 PM 39.0 °F 34.8 °F 24.1 °F 55% 30.12 in 10.0 mi NW 5.8 mph - N/A   Overcast
4:53 PM 37.9 °F 32.7 °F 24.1 °F 57% 30.13 in 10.0 mi NW 6.9 mph - N/A   Overcast
5:53 PM 37.0 °F 32.4 °F 24.1 °F 59% 30.13 in 10.0 mi NNW 5.8 mph - N/A   Overcast
6:53 PM 37.0 °F 31.6 °F 24.1 °F 59% 30.14 in 10.0 mi NNW 6.9 mph - N/A   Overcast
7:53 PM 37.0 °F 34.5 °F 24.1 °F 59% 30.13 in 10.0 mi NNW 3.5 mph - N/A   Overcast
8:53 PM 37.0 °F 33.3 °F 25.0 °F 62% 30.13 in 10.0 mi NNW 4.6 mph - N/A   Overcast
9:53 PM 37.0 °F 33.3 °F 25.0 °F 62% 30.13 in 10.0 mi NNW 4.6 mph - N/A   Overcast
10:53 PM 37.0 °F 31.6 °F 24.1 °F 59% 30.12 in 10.0 mi NNW 6.9 mph - N/A   Overcast